Home   Weather   Landsberg am Lech   Past weeks

Flag for Germany Past Weather in Landsberg am Lech, Bavaria, Germany — Yesterday and Last 2 Weeks

Now
57 °F

Fog.


Feels Like: 57 °F
Forecast: 47 / 70 °F
Wind: 5 mph from West

Location: Landsberg

Current Time: Sep 27, 2016 at 2:14:37 PM

Latest Report: Sep 27, 2016 at 1:20 PM


Visibility: 3 mi

Pressure: 30.33 "Hg (28.26 "Hg at 593m altitude)

Humidity: 88%

Dew Point: 54 °F

Location of Landsberg am LechLocation

Past Weather in Landsberg am Lech — Graph

°F

Landsberg am Lech Temperature Yesterday

Maximum temperature yesterday: 68 °F (at 1:20 PM)
Minimum temperature yesterday: 48 °F (at 3:20 AM)
Average temperature yesterday: 58 °F

High & Low Weather Summary for the Past Weeks

 TemperatureHumidityPressure
High82 °F (Sep 12, 3:20 PM)100% (Sep 15, 4:55 AM)30.33 "Hg (Sep 15, 4:55 AM)
Low39 °F (Sep 22, 5:20 AM)32% (Sep 12, 4:20 PM)29.86 "Hg (Sep 15, 4:55 AM)
Average58 °F80%30.08 "Hg
* Reported Sep 12 1:20 PM — Sep 27 1:02 PM, Landsberg am Lech, Weather by CustomWeather, © 2016

Note: Actual official high and low records may vary slightly from our data, if they occured in-between our weather recording intervals... More about our weather records

Advertising

Landsberg am Lech Weather History for the Previous 24 Hours

Scroll right to see more
 ConditionsComfort  
Time TempWeatherWind HumidityBarometerVisibility
1:02 PM
Tue, Sep 27
55 °FFog.5 mph94%30.33 "Hg2 mi
12:20 PM55 °FFog.7 mph94%30.33 "Hg2 mi
11:58 AM55 °FFog.7 mph94%30.33 "Hg2 mi
11:20 AM57 °FLow clouds.7 mph88%30.30 "Hg4 mi
10:20 AM57 °FScattered clouds.8 mph88%30.30 "Hg5 mi
9:20 AM55 °FFog.5 mph94%30.27 "Hg2 mi
7:20 AM52 °FFog.6 mph100%30.24 "Hg0 mi
6:20 AM52 °FFog.3 mph94%30.21 "Hg0 mi
5:20 AM50 °FFog.1 mph100%30.21 "Hg0 mi
4:20 AM50 °FFog.3 mph100%30.21 "Hg0 mi
3:20 AM50 °FFog.1 mph94%30.21 "Hg0 mi
2:20 AM46 °FFog.No wind100%30.18 "Hg2 mi
1:20 AM50 °FFog.2 mph94%30.18 "Hg4 mi
12:20 AM50 °FFog.2 mph94%30.21 "Hg4 mi
11:20 PM
Mon, Sep 26
52 °FCool.1 mph94%30.18 "HgN/A
10:20 PM54 °FCool.3 mph88%30.18 "HgN/A
9:20 PM57 °FCool.3 mph82%30.18 "HgN/A
8:20 PM57 °FPassing clouds.2 mph82%30.18 "HgN/A
7:20 PM61 °FPassing clouds.5 mph72%30.15 "HgN/A
6:20 PM66 °FPassing clouds.7 mph60%30.15 "HgN/A
5:20 PM68 °FPassing clouds.9 mph56%30.15 "HgN/A
4:20 PM68 °FPassing clouds.7 mph53%30.15 "HgN/A
3:20 PM68 °FPassing clouds.7 mph56%30.15 "HgN/A
2:20 PM68 °FPassing clouds.6 mph56%30.18 "HgN/A
Weather by CustomWeather, © 2016

See weather overviewHow to use our weather pages